Regional Weather Roundup
Issued by NWS Upton, NY

Current Version | Previous Version | Text Only | Print | Product List | Glossary On
Versions: 1 2 3 4 5 6 7 8 9 10 11 12 13 14 15 16 17 18 19 20 21 22 23 24 25 26 27 28 29 30 31 32 33 34 35 36 37 38 39 40 41 42 43 44 45 46 47 48 49 50
022 ASUS41 KOKX 302104 RWROKX REGIONAL WEATHER ROUNDUP NATIONAL WEATHER SERVICE NEW YORK NY 500 PM EDT TUE AUG 30 2016 NOTE: "FAIR" INDICATES FEW OR NO CLOUDS BELOW 12,000 FEET WITH NO SIGNIFICANT WEATHER AND/OR OBSTRUCTIONS TO VISIBILITY. NYZ071-072-176-178-NJZ106-104-302200- NEW YORK CITY METRO AREA CITY SKY/WX TMP DP RH WIND PRES REMARKS Central Park MOSUNNY 82 61 48 VRB3 30.08F LaGuardia APRT MOSUNNY 84 60 44 S9 30.05F Kennedy INTL MOSUNNY 80 66 62 MISG 30.07F Newark/Liberty MOSUNNY 82 64 54 S9 30.05F Bronx Bot Gard N/A 82 59 44 S5 30.08R Wall St Helipt CLEAR 84 63 48 SW6 30.07S Teterboro PTSUNNY 84 59 42 SW13 30.03F $$ NYZ177-179-078>081-302200- LONG ISLAND NEW YORK CITY SKY/WX TMP DP RH WIND PRES REMARKS Farmingdale SUNNY 81 59 47 S10 30.07F MacArthur/ISP MOSUNNY 80 61 52 S7 30.06F Shirley SUNNY 80 60 50 SW9 30.08F Riverhead NOT AVBL Westhampton SUNNY 78 60 53 S9 30.09F Southampton N/A 77 64 65 SW6 30.04F Bridgehampton N/A 81 66 61 S2 29.92F East Hampton FAIR 76 62 63 S6 30.07F Montauk N/A 75 65 70 S6 30.08F $$ NYZ052-065-067-302200- HUDSON VALLEY CITY SKY/WX TMP DP RH WIND PRES REMARKS White Plains MOSUNNY 80 61 52 SE5 30.06F Newburgh MOSUNNY 81 63 54 W9 30.08F Montgomery SUNNY 83 61 47 SW8 30.06F Poughkeepsie SUNNY 82 57 42 SW8 30.04F Albany MOSUNNY 82 54 37 W8 30.05F $$ NJZ001-105-106-008-010-013-015-019>022-104-302200- NEW JERSEY CITY SKY/WX TMP DP RH WIND PRES REMARKS Newark/Liberty MOSUNNY 82 64 54 S9 30.05F Teterboro PTSUNNY 84 59 42 SW13 30.03F Caldwell MOSUNNY 85 58 39 VRB5 30.05F Morristown PTSUNNY 84 55 37 CALM 30.06S Somerville SUNNY 86 57 37 VRB6 30.04F Linden FAIR 83 62 49 SE8 30.07F Sussex SUNNY 82 58 43 VRB3 30.08S Abdover N/A 82 58 43 CALM 30.08F Trenton SUNNY 86 59 39 NW3 30.05F Millville CLOUDY 83 73 72 SE8 30.05F Atlantic City CLOUDY 80 71 74 SE8 30.06F Wrightstown MOSUNNY 84 66 53 SE5 30.02F Toms River SUNNY 82 67 60 SE12 30.07F Belmar SUNNY 79 66 64 E12 30.08F $$ PAZ047>061-062-071-302200- EASTERN PENNSYLVANIA CITY SKY/WX TMP DP RH WIND PRES REMARKS Philadelphia MOSUNNY 89 55 31 SW8 30.04F Allentown SUNNY 85 58 39 W3 30.07F Scranton MOSUNNY 81 60 48 W6 30.09F $$ CTZ002-004>006-009-010-012-RIZ004-006-007-MAZ004-011-015-302200- SOUTHERN NEW ENGLAND IN CT CITY SKY/WX TMP DP RH WIND PRES REMARKS Bradley INTL PTSUNNY 84 54 35 W10 30.05F Hartford MOSUNNY 86 56 35 SW7 30.04F Danbury MOSUNNY 80 60 50 W6 30.08F Wtrbury/Oxford MOSUNNY 79 55 44 NW3 30.11F Bridgeport MOSUNNY 81 63 54 S10 30.06F Meriden MOSUNNY 84 54 35 NW6 30.05F New Haven MOSUNNY 80 62 54 SW8 30.06F Chester FAIR 81 61 50 SW8 30.07S Groton MOSUNNY 76 66 71 S9 30.06F Wilimantic CLOUDY 81 57 43 CALM 30.06F IN RI CITY SKY/WX TMP DP RH WIND PRES REMARKS Providence PTSUNNY 77 61 57 SE12 30.06F Block Island SUNNY 76 63 64 SW12 30.07F Westerly MOSUNNY 77 61 57 S7 30.07F IN MA CITY SKY/WX TMP DP RH WIND PRES REMARKS Boston MOSUNNY 75 58 55 E16 30.04F Worcester SUNNY 77 52 41 W5 30.08F Westfield SUNNY 84 52 33 W8 30.04F Provincetown CLOUDY 76 62 62 SE9 30.06F Nantucket SUNNY 72 59 63 S8 30.09F $$ ANZ330-335-338-340-345-350-353-355-302200- COASTAL MARINE OBSERVATIONS STATION/POSITION TIME SKY/WX TEMP WIND PRES VSBY WAVE AIR SEA DIR/SP/G HT/PER (UTC) (F) (DEG/KT/KT) (MB) (MI) (FT/S) NY HARB ENTRANCE 1950 76 79 120/ 8/ 10 1018.5 4/11 20S FIRE ISLAND 1950 75 78 120/ 2/ 4 1018.7 4/12 GREAT SOUTH BAY 2000 76 80 200/ 8/ 10 N/A 23 SSW MONTAUK P 1950 74 79 180/ 4/ 6 1019.4 4/12 15 E BARNEGAT LI 2000 78 N/A 5/11 HUDSON CANYON 1950 77 79 1018.7 5/12 KINGS POINT 2000 81 78 1017.8 EXECUTION ROCKS 2000 79 50/ 2/ 4 N/A CENTRAL LI SOUND 2015 77 79 190/ 4/ 6 N/A 0 EASTERN LI SOUND 2015 74 71 170/ 8/ 10 N/A ROBBINS REEF 2000 75 170/ 15/ 16 1017.5 $$ >>>>>>>>>>>>>>>>>>>>>>>>>>>> KEY <<<<<<<<<<<<<<<<<<<<<<<<<<< > < > SKY/WX - Sky Condition/Present Weather < > TMP - Temperature in Fahrenheit < > DP - Dew Point in Fahrenheit < > RH - Relative Humidity in Percent < > WIND - Direction (from) and Speed in MPH < > PRES - Mean Sea Level Pressure (inches of Hg) < > WCI - Wind Chill Index < > VSB - VISIBILITY IN MILES < > HX - HEAT INDEX < > TC - TEMPERATURE IN CELSIUS < > VRB - VARIABLE WIND DIRECTION < > < >>>>>>>>>>>>>>>>>>>>>>>>>>>> KEY <<<<<<<<<<<<<<<<<<<<<<<<<<<

USA.gov is the U.S. government's official web portal to all federal, state and local government web resources and services.